Meteo orario Gogoliha

Oggi, 16 Aprile, Venerdi

Tempo Temperatura Precipitazioni Vento Pressione Umidità
00:00 +5°C° 0 mm 5 m/s 750 mm Hg 81%
01:00 +3°C° 0 mm 5 m/s 750 mm Hg 83%
02:00 +3°C° 0 mm 5 m/s 750 mm Hg 84%
03:00 +2°C° 0 mm 5 m/s 751 mm Hg 85%
04:00 +2°C° 0 mm 5 m/s 751 mm Hg 86%
05:00 +2°C° 0 mm 5 m/s 751 mm Hg 87%
06:00 +3°C° 0 mm 5 m/s 751 mm Hg 84%
07:00 +3°C° 0 mm 5 m/s 751 mm Hg 81%
08:00 +5°C° 0 mm 5 m/s 751 mm Hg 78%
09:00 +7°C° 0 mm 5 m/s 751 mm Hg 73%
10:00 +8°C° 0 mm 5 m/s 752 mm Hg 69%
11:00 +9°C° 0 mm 5 m/s 752 mm Hg 65%
12:00 +10°C° 0 mm 5 m/s 752 mm Hg 63%
13:00 +12°C° 0 mm 5 m/s 752 mm Hg 62%
14:00 +12°C° 0 mm 5 m/s 752 mm Hg 60%
15:00 +12°C° 0 mm 5 m/s 752 mm Hg 61%
16:00 +12°C° 0 mm 5 m/s 752 mm Hg 62%
17:00 +12°C° 0 mm 5 m/s 751 mm Hg 63%
18:00 +10°C° 0 mm 5 m/s 752 mm Hg 65%
19:00 +9°C° 0 mm 5 m/s 752 mm Hg 66%
20:00 +8°C° 0 mm 5 m/s 752 mm Hg 67%
21:00 +7°C° 0 mm 5 m/s 752 mm Hg 68%
22:00 +6°C° 0 mm 5 m/s 752 mm Hg 69%
23:00 +6°C° 0 mm 5 m/s 752 mm Hg 70%

Domani, 17 Aprile, Sabato

Tempo Temperatura Precipitazioni Vento Pressione Umidità
00:00 +5°C° 0 mm 4 m/s 752 mm Hg 71%
01:00 +5°C° 0 mm 4 m/s 752 mm Hg 73%
02:00 +4°C° 0 mm 4 m/s 752 mm Hg 75%
03:00 +4°C° 0 mm 4 m/s 753 mm Hg 77%
04:00 +4°C° 0 mm 4 m/s 753 mm Hg 79%
05:00 +3°C° 0 mm 4 m/s 753 mm Hg 80%
06:00 +4°C° 0 mm 4 m/s 753 mm Hg 76%
07:00 +5°C° 0 mm 4 m/s 753 mm Hg 72%
08:00 +6°C° 0 mm 5 m/s 753 mm Hg 69%
09:00 +8°C° 0 mm 5 m/s 753 mm Hg 64%
10:00 +9°C° 0 mm 5 m/s 753 mm Hg 60%
11:00 +12°C° 0 mm 5 m/s 753 mm Hg 56%
12:00 +12°C° 0 mm 5 m/s 753 mm Hg 53%
13:00 +13°C° 0 mm 6 m/s 753 mm Hg 51%
14:00 +14°C° 0 mm 6 m/s 753 mm Hg 48%
15:00 +13°C° 0 mm 5 m/s 753 mm Hg 48%
16:00 +13°C° 0 mm 5 m/s 753 mm Hg 48%
17:00 +12°C° 0 mm 5 m/s 752 mm Hg 48%
18:00 +10°C° 0 mm 5 m/s 752 mm Hg 50%
19:00 +8°C° 0 mm 4 m/s 753 mm Hg 52%
20:00 +7°C° 0 mm 4 m/s 753 mm Hg 54%
21:00 +6°C° 0 mm 4 m/s 753 mm Hg 57%
22:00 +6°C° 0 mm 4 m/s 753 mm Hg 60%
23:00 +5°C° 0 mm 4 m/s 753 mm Hg 63%

Dopodomani, 18 Aprile, Domenica

Tempo Temperatura Precipitazioni Vento Pressione Umidità
00:00 +5°C° 0 mm 4 m/s 753 mm Hg 67%
01:00 +4°C° 0 mm 4 m/s 753 mm Hg 70%
02:00 +4°C° 0 mm 4 m/s 753 mm Hg 73%
03:00 +3°C° 0 mm 4 m/s 753 mm Hg 74%
04:00 +3°C° 0 mm 4 m/s 753 mm Hg 76%
05:00 +3°C° 0 mm 4 m/s 753 mm Hg 77%
06:00 +4°C° 0 mm 4 m/s 753 mm Hg 71%
07:00 +5°C° 0 mm 5 m/s 753 mm Hg 65%
08:00 +7°C° 0 mm 5 m/s 753 mm Hg 58%
09:00 +8°C° 0 mm 5 m/s 753 mm Hg 53%
10:00 +9°C° 0 mm 5 m/s 753 mm Hg 48%
11:00 +10°C° 0 mm 5 m/s 753 mm Hg 43%
12:00 +12°C° 0 mm 5 m/s 753 mm Hg 42%
13:00 +12°C° 0 mm 5 m/s 753 mm Hg 40%
14:00 +13°C° 0 mm 6 m/s 753 mm Hg 39%
15:00 +12°C° 0 mm 5 m/s 752 mm Hg 41%
16:00 +12°C° 0 mm 5 m/s 752 mm Hg 44%
17:00 +12°C° 0 mm 4 m/s 752 mm Hg 46%
18:00 +10°C° 0 mm 4 m/s 753 mm Hg 52%
19:00 +8°C° 0 mm 4 m/s 753 mm Hg 58%
20:00 +7°C° 0 mm 3 m/s 753 mm Hg 64%
21:00 +6°C° 0 mm 4 m/s 753 mm Hg 68%
22:00 +6°C° 0 mm 4 m/s 753 mm Hg 71%
23:00 +5°C° 0 mm 4 m/s 753 mm Hg 74%

19 Aprile, Lunedi

Tempo Temperatura Precipitazioni Vento Pressione Umidità
00:00 +5°C° 0 mm 4 m/s 754 mm Hg 77%
01:00 +4°C° 0 mm 4 m/s 754 mm Hg 81%
02:00 +4°C° 0 mm 4 m/s 754 mm Hg 85%
03:00 +3°C° 0 mm 4 m/s 754 mm Hg 87%
04:00 +3°C° 0 mm 4 m/s 754 mm Hg 89%
05:00 +2°C° 0 mm 3 m/s 754 mm Hg 91%
06:00 +3°C° 0 mm 4 m/s 754 mm Hg 86%
07:00 +4°C° 0 mm 4 m/s 754 mm Hg 81%
08:00 +5°C° 0 mm 4 m/s 754 mm Hg 76%
09:00 +6°C° 0 mm 4 m/s 754 mm Hg 71%
10:00 +7°C° 0 mm 5 m/s 754 mm Hg 67%
11:00 +7°C° 0 mm 5 m/s 754 mm Hg 62%
12:00 +7°C° 0 mm 5 m/s 754 mm Hg 65%
13:00 +7°C° 0 mm 4 m/s 754 mm Hg 68%
14:00 +7°C° 0 mm 4 m/s 754 mm Hg 70%
15:00 +7°C° 0 mm 4 m/s 754 mm Hg 70%
16:00 +7°C° 0 mm 4 m/s 754 mm Hg 69%
17:00 +7°C° 0 mm 4 m/s 753 mm Hg 69%
18:00 +6°C° 0 mm 4 m/s 753 mm Hg 70%
19:00 +6°C° 0 mm 4 m/s 753 mm Hg 72%
20:00 +6°C° 0 mm 5 m/s 753 mm Hg 73%
21:00 +5°C° 0 mm 4 m/s 753 mm Hg 74%
22:00 +5°C° 0 mm 4 m/s 753 mm Hg 75%
23:00 +5°C° 0 mm 4 m/s 752 mm Hg 75%

20 Aprile, Martedi

Tempo Temperatura Precipitazioni Vento Pressione Umidità
00:00 +5°C° 0 mm 4 m/s 752 mm Hg 72%
01:00 +4°C° 0 mm 4 m/s 752 mm Hg 69%
02:00 +3°C° 0 mm 5 m/s 751 mm Hg 66%
03:00 +2°C° 0 mm 5 m/s 751 mm Hg 67%
04:00 +2°C° 0 mm 5 m/s 751 mm Hg 68%
05:00 +1°C° 0 mm 5 m/s 750 mm Hg 69%
06:00 +2°C° 0 mm 5 m/s 750 mm Hg 67%
07:00 +2°C° 0 mm 5 m/s 749 mm Hg 65%
08:00 +3°C° 0 mm 6 m/s 749 mm Hg 64%
09:00 +4°C° 0 mm 6 m/s 748 mm Hg 62%
10:00 +5°C° 0 mm 6 m/s 748 mm Hg 59%
11:00 +8°C° 0 mm 7 m/s 747 mm Hg 57%
12:00 +6°C° 0 mm 7 m/s 746 mm Hg 59%
13:00 +6°C° 0 mm 7 m/s 745 mm Hg 61%
14:00 +6°C° 0 mm 7 m/s 744 mm Hg 63%
15:00 +6°C° 0.5 mm 7 m/s 744 mm Hg 68%
16:00 +5°C° 0.5 mm 8 m/s 743 mm Hg 74%
17:00 +5°C° 0.5 mm 8 m/s 742 mm Hg 80%
18:00 +5°C° 0.9 mm 8 m/s 741 mm Hg 82%
19:00 +4°C° 0.9 mm 8 m/s 740 mm Hg 84%
20:00 +4°C° 0.9 mm 8 m/s 739 mm Hg 87%
21:00 +4°C° 0.8 mm 8 m/s 739 mm Hg 87%
22:00 +4°C° 0.8 mm 8 m/s 738 mm Hg 88%
23:00 +4°C° 0.8 mm 8 m/s 737 mm Hg 89%

21 Aprile, Mercoledi

Tempo Temperatura Precipitazioni Vento Pressione Umidità
00:00 +4°C° 0.4 mm 7 m/s 737 mm Hg 89%
01:00 +4°C° 0.4 mm 7 m/s 737 mm Hg 90%
02:00 +4°C° 0.4 mm 7 m/s 736 mm Hg 90%
03:00 +4°C° 0.4 mm 7 m/s 736 mm Hg 90%
04:00 +4°C° 0.4 mm 6 m/s 736 mm Hg 91%
05:00 +4°C° 0.4 mm 6 m/s 735 mm Hg 91%
06:00 +4°C° 0.4 mm 6 m/s 735 mm Hg 91%
07:00 +5°C° 0.4 mm 6 m/s 735 mm Hg 91%
08:00 +5°C° 0.4 mm 7 m/s 734 mm Hg 92%
09:00 +5°C° 0.3 mm 6 m/s 735 mm Hg 89%
10:00 +5°C° 0.3 mm 6 m/s 735 mm Hg 87%
11:00 +5°C° 0.3 mm 6 m/s 735 mm Hg 85%
12:00 +7°C° 0.1 mm 6 m/s 736 mm Hg 80%
13:00 +8°C° 0.1 mm 6 m/s 736 mm Hg 74%
14:00 +9°C° 0.1 mm 6 m/s 737 mm Hg 69%
15:00 +9°C° 0.1 mm 6 m/s 737 mm Hg 69%
16:00 +9°C° 0.1 mm 6 m/s 737 mm Hg 69%
17:00 +9°C° 0.1 mm 6 m/s 737 mm Hg 70%
18:00 +8°C° 0.1 mm 6 m/s 737 mm Hg 73%
19:00 +7°C° 0.1 mm 6 m/s 738 mm Hg 76%
20:00 +5°C° 0.1 mm 6 m/s 738 mm Hg 79%
21:00 +5°C° 0.1 mm 6 m/s 739 mm Hg 81%
22:00 +5°C° 0.1 mm 5 m/s 739 mm Hg 83%
23:00 +5°C° 0.1 mm 5 m/s 739 mm Hg 85%
Mostrare altro

Abbiamo bisogno del tuo consenso

Meteoprog e i nostri fornitori di servizi possono memorizzare e accedere a dati personali come cookie, identificatori di dispositivi o altre tecnologie simili sul tuo dispositivo e possono elaborare tali dati per personalizzare i contenuti e gli annunci, nonché fornire funzionalità dei social media e analizzarne il traffico.

  • Archiviare e/o accedere alle informazioni sul tuo dispositivo

    Cookie, identificatori di dispositivi o altre informazioni possono essere memorizzati o resi accessibili sul tuo dispositivo per le finalità sopra indicate.

  • Annunci e contenuti personalizzati, misurazione di annunci e contenuti, approfondimenti sul pubblico e sviluppo di prodotti

    Gli annunci e i contenuti possono essere personalizzati in base a un profilo. È possibile aggiungere più dati per personalizzare meglio annunci e contenuti. È possibile misurare il rendimento degli annunci e dei contenuti. È possibile ricavare informazioni sul pubblico che ha visto gli annunci e i contenuti. Tali dati possono essere utilizzati per sviluppare o migliorare l'esperienza, i sistemi e il software dell'utente.

Cliccando su “Accetto”, acconsenti all'uso di cookie, identificatori di dispositivo, web beacon o altre tecnologie simili. Puoi modificare le impostazioni nel browser del tuo dispositivo.

Per determinati scopi, è possibile fare affidamento su interessi legali, piuttosto che sul consenso. Puoi approfondire questo argomento consultando la nostra Informativa sulla privacy e sui cookie.